Content
SEND FEEDBACK

Daily
Averages
Monthly
Summary
United States of America

PYGA BEACH, GUAM


Home > North America > United States > Guam
Elevation: 20 feet     Latitude: 13 17N     Longitude: 144 39E

WEATHER
 
SELECT A DAY
Number of Records: 341,716;   Date Range: 1/1/95 - 7/22/14
 
SHARE

PRINT THIS DATA

[ ← Previous Day ]
WEATHER ALMANAC - FEBRUARY 3, 2013
[ Next Day → ]
[ °C ]   °F
Weather ElementAverageHighLow
Temperature78.2 °F83.1 °F (12:55 pm)75.2 °F (9:04 am)
Dewpoint70.2 °F71.8 °F (9:55 am)67.6 °F (4:55 am)
Humidity76.6 %89 % (9:04 am)67 % (12:55 pm)
Barometer29.95 in29.98 in (8:53 am)29.90 in (2:55 pm)
Wind Speed18.2 mph20.7 mph (12:14 am)
Wind Gust26.5 mph (1:27 am)
Weather ElementAverage
Visibility9.6 mi
Wind DirectionENE (58.4 °)

Weather ElementTotal
Precipitation0.06 in
Cooling Degree Days14.2 (Base 65)
Growing Degree Days29.2 (Base 50)
Averaged from 58 records on February 3, 2013
WEATHER CONDITIONS BREAKOUT
WIND DIRECTION BREAKOUT
WEATHER BY HOUR - FEBRUARY 3, 2013
[ °C ]   °F
Local TimeTemperatureDewpointHumidityBarometerVisibilityWind DirectionWind SpeedGust SpeedPrecipitationEventsConditions
12:12 AM77.0 °F68.0 °F74 %29.97 in10.0 miENE (60°)18.4 mphMostly Cloudy
12:14 AM77.0 °F68.0 °F74 %29.97 in10.0 miENE (60°)20.7 mphMostly Cloudy
12:19 AM77.0 °F69.8 °F78 %29.97 in10.0 miNE (50°)19.6 mphMostly Cloudy
12:22 AM77.0 °F69.8 °F78 %29.97 in10.0 miNE (50°)18.4 mphMostly Cloudy
12:23 AM77.0 °F69.8 °F78 %29.97 in10.0 miNE (50°)17.3 mphMostly Cloudy
12:55 AM76.1 °F68.4 °F77 %29.96 in10.0 miENE (60°)18.4 mphMostly Cloudy
1:27 AM77.0 °F69.8 °F78 %29.95 in10.0 miENE (60°)20.7 mph26.5 mphMostly Cloudy
1:34 AM77.0 °F68.0 °F74 %29.95 in10.0 miENE (60°)20.7 mph26.5 mphScattered Clouds
1:55 AM76.6 °F68.7 °F76 %29.94 in10.0 miENE (60°)15.0 mphScattered Clouds
2:36 AM77.0 °F68.0 °F74 %29.93 in10.0 miNE (50°)18.4 mphMostly Cloudy
2:43 AM77.0 °F68.0 °F74 %29.93 in10.0 miENE (60°)20.7 mphMostly Cloudy
2:55 AM76.3 °F68.9 °F78 %29.92 in10.0 miNE (50°)19.6 mph26.5 mphScattered Clouds
3:55 AM76.3 °F69.1 °F78 %29.92 in10.0 miNE (50°)17.3 mphScattered Clouds
4:55 AM76.6 °F67.6 °F74 %29.93 in10.0 miNE (50°)19.6 mphMostly Cloudy
5:55 AM76.6 °F68.5 °F76 %29.94 in10.0 miNE (50°)18.4 mphScattered Clouds
6:55 AM76.5 °F68.9 °F77 %29.96 in10.0 miNE (50°)17.3 mphClear
7:23 AM77.0 °F69.8 °F78 %29.96 in10.0 miNE (50°)18.4 mphMostly Cloudy
7:26 AM77.0 °F69.8 °F78 %29.96 in10.0 miNE (50°)17.3 mphScattered Clouds
7:55 AM77.9 °F70.3 °F77 %29.97 in10.0 miENE (60°)18.4 mph24.2 mphScattered Clouds
8:53 AM77.0 °F71.6 °F83 %29.98 in10.0 miENE (60°)18.4 mph26.5 mphRainLight Rain
8:55 AM77.2 °F71.4 °F82 %29.98 in9.0 miENE (60°)20.7 mph26.5 mph0.00 inRainLight Rain
8:57 AM77.0 °F71.6 °F83 %29.98 in7.0 miENE (70°)19.6 mph26.5 mphRainLight Rain
9:04 AM75.2 °F71.6 °F89 %29.98 in3.0 miENE (60°)19.6 mphRainLight Rain
9:05 AM75.2 °F71.6 °F89 %29.98 in2.5 miENE (60°)19.6 mphRainLight Rain
9:09 AM75.2 °F71.6 °F89 %29.98 in3.0 miENE (60°)17.3 mphRainLight Rain
9:31 AM78.8 °F71.6 °F78 %29.98 in10.0 miENE (60°)17.3 mphLight Drizzle
9:33 AM78.8 °F71.6 °F78 %29.98 in10.0 miENE (60°)19.6 mph24.2 mphScattered Clouds
9:55 AM78.8 °F71.8 °F79 %29.97 in10.0 miENE (60°)18.4 mph0.06 inClear
10:55 AM81.7 °F71.6 °F71 %29.96 in10.0 miNE (50°)20.7 mphScattered Clouds
11:51 AM80.6 °F69.8 °F70 %29.94 in10.0 miENE (60°)18.4 mph25.3 mphMostly Cloudy
11:55 AM81.5 °F70.3 °F69 %29.94 in10.0 miNE (50°)20.7 mphMostly Cloudy
12:24 PM82.4 °F71.6 °F70 %29.94 in10.0 miENE (60°)18.4 mphScattered Clouds
12:28 PM82.4 °F71.6 °F70 %29.93 in10.0 miENE (60°)20.7 mphMostly Cloudy
12:30 PM82.4 °F71.6 °F70 %29.93 in10.0 miENE (60°)19.6 mphScattered Clouds
12:55 PM83.1 °F71.1 °F67 %29.92 in10.0 miENE (70°)16.1 mph25.3 mphScattered Clouds
1:55 PM82.4 °F70.7 °F68 %29.92 in10.0 miENE (60°)18.4 mphScattered Clouds
2:55 PM82.9 °F71.2 °F68 %29.90 in10.0 miENE (60°)18.4 mphScattered Clouds
3:55 PM80.8 °F71.1 °F72 %29.90 in10.0 miENE (60°)18.4 mphScattered Clouds
4:13 PM80.6 °F71.6 °F74 %29.91 in10.0 miENE (60°)17.3 mphMostly Cloudy
4:17 PM80.6 °F71.6 °F74 %29.91 in10.0 miENE (60°)17.3 mphMostly Cloudy
4:18 PM80.6 °F71.6 °F74 %29.91 in10.0 miENE (60°)17.3 mphMostly Cloudy
4:21 PM80.6 °F71.6 °F74 %29.91 in10.0 miENE (60°)18.4 mphMostly Cloudy
4:51 PM78.8 °F69.8 °F74 %29.91 in10.0 miENE (70°)18.4 mph24.2 mphMostly Cloudy
4:53 PM78.8 °F69.8 °F74 %29.91 in10.0 miENE (60°)15.0 mph24.2 mphScattered Clouds
4:55 PM79.2 °F70.3 °F74 %29.91 in10.0 miENE (60°)17.3 mphScattered Clouds
5:55 PM78.1 °F70.3 °F77 %29.92 in10.0 miENE (60°)18.4 mphScattered Clouds
6:45 PM77.0 °F71.6 °F83 %29.94 in10.0 miENE (70°)15.0 mphMostly Cloudy
6:55 PM77.7 °F70.7 °F79 %29.94 in10.0 miENE (60°)15.0 mphOvercast
7:14 PM77.0 °F69.8 °F78 %29.94 in10.0 miENE (60°)17.3 mphMostly Cloudy
7:55 PM77.2 °F70.0 °F78 %29.95 in10.0 miENE (60°)16.1 mphPartly Cloudy
8:55 PM77.4 °F70.9 °F80 %29.97 in10.0 miENE (60°)17.3 mphScattered Clouds
9:55 PM77.0 °F70.7 °F81 %29.98 in10.0 miNE (50°)19.6 mphScattered Clouds
10:40 PM77.0 °F69.8 °F78 %29.97 in10.0 miENE (60°)17.3 mphMostly Cloudy
10:45 PM77.0 °F69.8 °F78 %29.97 in10.0 miENE (70°)17.3 mphMostly Cloudy
10:55 PM76.6 °F70.0 °F80 %29.97 in10.0 miENE (60°)16.1 mphScattered Clouds
11:31 PM77.0 °F69.8 °F78 %29.97 in10.0 miENE (60°)16.1 mphMostly Cloudy
11:43 PM77.0 °F69.8 °F78 %29.97 in10.0 miENE (60°)17.3 mphMostly Cloudy
11:55 PM77.0 °F70.3 °F80 %29.96 in10.0 miENE (60°)16.1 mphOvercast
Hourly data recorded from PGUA, located miles away from Pyga Beach, Guam







STORIES FROM OUR PARTNERS